Location: Frankfurt+am+Main
(50.1100°N, 8.4815°E)
Time: 13:17:34
(UTC+01:00)

ISS - Visible Passes

Search period start: 24 February 2018 00:00
Search period end: 06 March 2018 00:00
Orbit: 402 x 407 km, 51.6° (Epoch: 24 February)

Date Brightness Start Highest point End Pass type
(mag) Time Alt. Az. Time Alt. Az. Time Alt. Az.
26 Feb -0.7 06:25:32 10° SSE 06:26:59 12° SE 06:28:27 10° ESE visible
28 Feb -1.6 06:16:00 10° SSW 06:18:40 23° SE 06:21:20 10° E visible
01 Mar -1.1 05:24:41 10° S 05:26:37 15° SE 05:28:34 10° ESE visible
02 Mar -2.7 06:07:18 10° SW 06:10:24 41° SSE 06:13:31 10° E visible
03 Mar -2.1 05:17:04 21° S 05:18:16 27° SE 05:21:05 10° E visible
04 Mar -1.2 04:26:59 16° ESE 04:26:59 16° ESE 04:28:25 10° E visible
04 Mar -3.7 05:59:38 15° WSW 06:02:12 70° SSE 06:05:29 10° ENE visible
05 Mar -3.2 05:09:28 43° S 05:09:57 48° SSE 05:13:08 10° ENE visible
